![]() |
EMODnet Physics ERDDAP
Easier access to scientific data |
log in|
Brought to you by EMODnet Physics |
| Dataset Title: | NDBC - Collection of dew point temperature (DEWT) TimeSeries - IN SITU MultiPointTimeSeriesObservation
|
| Institution: | NDBC (Dataset ID: TS_DEWT_NDBC) |
| Information: | Summary
| License
| FGDC
| ISO 19115
| Metadata
| Background
| Subset
| Data Access Form
| Make a graph
|
| Name | Last modified | Size | Description | |
|---|---|---|---|---|
| Parent Directory | - | - | ||
| DKKF1_TS_DEWT_012020.nc | 27-Oct-2024 08:25 | 429913 | ||
| DKKF1_TS_DEWT_012021.nc | 27-Oct-2024 08:25 | 429890 | ||
| DKKF1_TS_DEWT_012022.nc | 27-Oct-2024 08:25 | 429911 | ||
| DKKF1_TS_DEWT_012023.nc | 27-Oct-2024 08:25 | 429909 | ||
| DKKF1_TS_DEWT_022021.nc | 27-Oct-2024 08:25 | 1143329 | ||
| DKKF1_TS_DEWT_022022.nc | 27-Oct-2024 08:25 | 1143193 | ||
| DKKF1_TS_DEWT_022023.nc | 27-Oct-2024 08:25 | 1143315 | ||
| DKKF1_TS_DEWT_032020.nc | 27-Oct-2024 08:25 | 4661686 | ||
| DKKF1_TS_DEWT_032021.nc | 27-Oct-2024 08:25 | 429643 | ||
| DKKF1_TS_DEWT_032022.nc | 27-Oct-2024 08:25 | 429683 | ||
| DKKF1_TS_DEWT_032023.nc | 27-Oct-2024 08:25 | 429682 | ||
| DKKF1_TS_DEWT_042020.nc | 27-Oct-2024 08:26 | 429680 | ||
| DKKF1_TS_DEWT_042021.nc | 27-Oct-2024 08:26 | 429369 | ||
| DKKF1_TS_DEWT_042022.nc | 27-Oct-2024 08:26 | 429678 | ||
| DKKF1_TS_DEWT_042023.nc | 27-Oct-2024 08:26 | 429696 | ||
| DKKF1_TS_DEWT_052020.nc | 27-Oct-2024 08:26 | 429688 | ||
| DKKF1_TS_DEWT_052022.nc | 27-Oct-2024 08:26 | 440115 | ||
| DKKF1_TS_DEWT_052023.nc | 27-Oct-2024 08:26 | 442709 | ||
| DKKF1_TS_DEWT_062020.nc | 27-Oct-2024 08:26 | 429678 | ||
| DKKF1_TS_DEWT_062022.nc | 27-Oct-2024 08:26 | 429677 | ||
| DKKF1_TS_DEWT_062023.nc | 27-Oct-2024 08:26 | 429694 | ||
| DKKF1_TS_DEWT_072020.nc | 27-Oct-2024 08:26 | 429690 | ||
| DKKF1_TS_DEWT_072021.nc | 27-Oct-2024 08:26 | 429687 | ||
| DKKF1_TS_DEWT_072022.nc | 27-Oct-2024 08:27 | 450653 | ||
| DKKF1_TS_DEWT_072023.nc | 27-Oct-2024 08:27 | 448608 | ||
| DKKF1_TS_DEWT_082020.nc | 27-Oct-2024 08:27 | 449290 | ||
| DKKF1_TS_DEWT_082021.nc | 27-Oct-2024 08:27 | 429694 | ||
| DKKF1_TS_DEWT_082022.nc | 27-Oct-2024 08:27 | 429698 | ||
| DKKF1_TS_DEWT_082023.nc | 27-Oct-2024 08:27 | 429910 | ||
| DKKF1_TS_DEWT_092020.nc | 27-Oct-2024 08:27 | 429910 | ||
| DKKF1_TS_DEWT_092021.nc | 27-Oct-2024 08:27 | 429912 | ||
| DKKF1_TS_DEWT_092022.nc | 27-Oct-2024 08:27 | 429909 | ||
| DKKF1_TS_DEWT_092023.nc | 27-Oct-2024 08:27 | 429911 | ||
| DKKF1_TS_DEWT_102020.nc | 27-Oct-2024 08:27 | 429912 | ||
| DKKF1_TS_DEWT_102021.nc | 27-Oct-2024 08:27 | 429909 | ||
| DKKF1_TS_DEWT_102022.nc | 27-Oct-2024 08:27 | 429913 | ||
| DKKF1_TS_DEWT_102023.nc | 27-Oct-2024 08:27 | 429908 | ||
| DKKF1_TS_DEWT_112019.nc | 27-Oct-2024 08:28 | 429890 | ||
| DKKF1_TS_DEWT_112020.nc | 27-Oct-2024 08:28 | 429915 | ||
| DKKF1_TS_DEWT_112021.nc | 27-Oct-2024 08:28 | 429911 | ||
| DKKF1_TS_DEWT_112022.nc | 27-Oct-2024 08:28 | 429912 | ||
| DKKF1_TS_DEWT_112023.nc | 27-Oct-2024 08:28 | 429913 | ||
| DKKF1_TS_DEWT_122019.nc | 27-Oct-2024 08:28 | 429912 | ||
| DKKF1_TS_DEWT_122020.nc | 27-Oct-2024 08:28 | 429896 | ||
| DKKF1_TS_DEWT_122021.nc | 27-Oct-2024 08:28 | 1143314 | ||
| DKKF1_TS_DEWT_122022.nc | 27-Oct-2024 08:28 | 1143308 | ||
| DKKF1_TS_DEWT_122023.nc | 07-Dec-2024 18:01 | 1142487 | ||